GEFSSGP_con_cape1000_222.txt.gz
Probability
42 10 0 0 0 0 0 0 0 0 0 0 0 3 0 0 0 0 3 6 6 13 32 39 52 55 52 42 52 45 52 52 52 48 55 48 55 52 48 48 45 42 35 42 55 48 45 42 58
19 3 0 0 0 0 0 0 0 0 0 0 3 3 3 6 3 3 3 6 13 23 26 26 52 52 48 42 35 45 42 45 48 48 45 45 42 42 42 42 32 29 32 39 45 45 42 35 48
13 3 0 0 0 0 0 0 0 0 0 0 3 6 3 3 6 6 6 10 13 19 19 29 39 39 45 39 39 42 45 48 45 45 48 45 42 32 32 29 29 29 26 35 39 45 29 29 45
3 0 0 0 0 0 0 0 0 0 0 6 3 6 6 3 6 6 10 16 16 19 19 29 35 26 35 35 35 42 42 42 45 45 42 39 39 32 32 32 29 26 23 19 29 26 23 29 35
0 0 0 0 0 0 0 0 0 0 0 6 6 3 3 6 6 6 10 10 13 16 19 23 26 26 29 39 35 42 32 35 45 42 42 39 35 26 23 26 19 16 16 19 26 23 26 26 29
0 0 0 0 0 0 0 0 0 0 0 6 6 3 6 6 6 10 10 3 13 13 16 13 23 26 29 32 23 26 26 26 29 32 26 29 26 26 26 26 23 16 13 13 19 26 23 19 23
0 0 0 0 0 0 0 0 0 0 0 3 6 3 6 6 6 10 3 6 6 10 13 13 13 13 19 19 16 16 19 19 19 26 26 26 23 23 26 23 23 16 16 16 13 16 16 19 19
0 0 0 0 0 0 0 0 0 0 0 0 3 3 3 6 6 3 3 6 6 6 13 6 6 6 10 10 16 16 19 19 19 23 19 16 19 19 16 10 16 16 13 13 13 13 13 16 16
0 0 0 0 0 0 0 0 0 0 3 10 6 3 3 6 6 3 3 3 0 0 0 3 3 3 3 6 10 13 16 16 13 19 16 6 3 6 6 13 13 16 16 13 10 6 3 6 6
0 0 0 0 0 0 0 0 0 0 3 10 6 6 6 6 6 3 3 3 0 0 0 3 3 3 3 6 6 3 6 6 6 0 0 0 0 0 3 6 10 10 6 3 0 0 0 0 0
0 0 0 0 0 0 0 0 0 0 0 0 6 6 6 6 6 3 3 0 0 0 0 3 3 3 0 0 0 0 0 0 0 0 0 0 0 0 0 0 3 0 0 0 0 0 0 0 0
0 0 0 0 0 0 0 0 0 0 0 0 0 6 6 6 6 6 3 0 0 0 0 3 3 0 0 0 0 0 0 0 0 0 0 0 0 0 0 0 0 0 0 0 0 0 0 0 0
0 0 0 0 0 0 0 0 0 0 0 3 6 6 6 6 6 6 3 0 0 0 0 0 0 0 0 0 0 0 0 0 0 0 0 0 0 0 0 0 0 0 0 0 0 0 0 0 0
0 0 0 0 0 0 0 0 0 0 0 6 6 6 6 6 6 3 0 0 0 0 0 0 0 0 0 0 0 0 0 0 0 0 0 0 0 0 0 0 0 0 0 0 0 0 0 0 0
0 0 0 0 0 0 0 0 0 0 0 6 6 6 6 6 6 3 0 0 0 0 0 0 0 0 0 0 0 0 0 0 0 0 0 0 0 0 0 0 0 0 0 0 0 0 0 0 0
0 0 0 0 0 0 0 0 0 0 0 0 3 6 3 3 0 3 3 3 0 0 0 0 0 0 0 0 0 0 0 0 0 0 0 0 0 0 0 0 0 0 0 0 0 0 0 0 0
0 0 0 0 0 0 0 0 0 3 0 0 0 0 0 0 0 0 3 3 3 0 0 0 0 0 0 0 0 0 0 0 0 0 0 0 0 0 0 0 0 0 0 0 0 0 0 0 0
0 0 0 0 0 0 0 0 0 3 3 0 0 0 0 0 0 0 3 3 3 0 0 0 0 0 0 0 0 0 0 0 0 0 0 0 0 0 0 0 0 0 0 0 0 0 0 0 0
0 0 0 0 0 0 0 0 0 0 3 0 0 0 0 0 0 0 3 3 3 0 0 0 0 0 0 0 0 0 0 0 0 0 0 0 0 0 0 0 0 0 0 0 0 0 0 0 0
0 0 0 0 0 0 0 0 0 0 0 0 0 0 0 0 0 0 3 3 6 0 0 0 0 0 0 0 0 0 0 0 0 0 0 0 0 0 0 0 0 0 0 0 0 0 0 0 0
0 0 0 0 0 0 0 0 0 0 0 0 0 0 0 0 0 3 3 6 6 0 0 0 0 0 0 0 0 0 0 0 0 0 0 0 0 0 0 0 0 0 0 0 0 0 0 0 0
0 0 0 0 0 0 0 0 0 0 0 0 0 0 0 0 0 3 3 3 3 0 0 0 0 0 0 0 0 0 0 0 0 0 0 0 0 0 0 0 0 0 0 0 0 0 0 0 0
0 0 0 0 0 0 0 0 0 0 0 0 0 0 0 0 0 0 3 3 3 0 0 0 0 0 0 0 0 0 0 0 0 0 0 0 0 0 0 0 0 0 0 0 0 0 0 0 0
0 0 0 0 0 0 0 0 0 0 0 0 0 0 0 0 0 0 3 3 3 0 0 0 0 0 0 0 0 0 0 0 0 0 0 0 0 0 0 0 0 0 0 0 0 0 0 0 0
0 0 0 0 0 0 0 0 0 0 0 0 0 0 0 0 0 0 3 3 3 0 0 0 0 0 0 0 0 0 0 0 0 0 0 0 0 0 0 0 0 0 0 0 0 0 0 0 0
0 0 0 0 0 0 0 0 0 0 0 0 0 0 0 0 0 0 3 3 3 0 0 0 0 0 0 0 0 0 0 0 0 0 0 0 0 0 0 0 0 0 0 0 0 0 0 0 0
0 0 0 0 0 0 0 0 0 0 0 0 0 0 0 0 0 3 3 3 3 3 0 0 0 0 0 0 0 0 0 0 0 0 0 0 0 0 0 0 0 0 0 0 0 0 0 0 0
0 0 0 0 0 0 0 0 0 0 0 0 0 0 0 0 0 3 3 0 0 3 0 0 0 0 0 0 0 0 0 0 0 0 0 0 0 0 0 0 0 0 0 0 0 0 0 0 0
0 0 0 0 0 0 0 0 0 0 0 0 0 0 0 0 0 0 0 0 0 0 0 0 0 0 0 0 0 0 0 0 0 0 0 0 0 0 0 0 0 0 0 0 0 0 0 0 0
0 0 0 0 0 0 0 0 0 0 0 0 0 0 0 0 0 0 0 0 0 0 0 0 0 0 0 0 0 0 0 0 0 0 0 0 0 0 0 0 0 0 0 0 0 0 0 0 0

GEFSSGP_con_cape1000_228.txt.gz
Probability
39 26 19 32 19 3 0 0 0 0 0 3 0 0 0 0 3 10 19 10 13 16 16 39 42 42 52 45 39 42 45 48 48 52 48 48 42 45 39 42 45 55 52 45 42 42 55 65 58
23 13 16 19 6 0 0 0 0 0 0 0 0 0 0 3 6 10 13 16 6 13 16 23 42 42 42 39 42 42 35 42 42 45 42 45 35 35 39 29 26 35 42 42 45 42 52 52 42
13 23 6 3 0 0 0 0 0 0 0 3 3 0 0 13 6 16 19 19 10 13 19 29 35 32 32 39 45 42 42 35 39 42 35 42 35 32 32 29 26 29 32 39 45 39 35 42 39
13 16 6 0 0 0 0 0 0 3 3 3 3 0 6 10 16 16 23 10 13 10 16 29 32 32 32 39 48 42 39 32 32 35 39 32 29 23 26 23 26 23 23 29 39 35 32 29 26
13 10 0 0 0 0 0 0 0 0 3 3 0 0 10 16 13 16 13 10 13 10 13 19 29 29 26 35 35 39 32 32 32 32 32 23 23 19 19 19 23 19 23 32 26 26 19 16 19
3 0 0 0 0 0 0 0 0 0 3 3 0 0 10 16 23 19 13 13 13 10 10 19 19 23 19 16 16 19 26 26 29 29 23 23 23 23 19 19 16 16 16 23 23 23 16 16 16
3 0 0 0 0 0 0 0 0 0 0 3 0 0 6 19 26 19 10 13 10 10 13 16 16 13 16 19 19 16 19 16 23 19 19 19 19 19 13 16 10 6 10 16 13 16 16 16 13
0 0 0 0 0 0 0 0 0 0 3 6 0 0 6 13 16 23 16 16 16 13 16 13 10 6 13 13 13 13 13 16 19 16 19 19 19 13 6 6 10 6 6 10 13 13 6 10 10
0 0 0 0 0 0 0 0 0 0 6 3 3 6 10 13 16 19 19 13 10 10 13 6 6 6 10 16 10 13 10 10 10 10 13 13 13 6 0 3 10 10 6 6 10 10 6 3 13
0 0 0 0 0 0 0 0 0 0 0 0 6 10 13 16 16 16 16 10 6 6 6 3 3 3 3 3 13 16 13 13 13 10 6 3 3 0 0 0 6 6 3 3 3 3 3 0 3
0 0 0 0 0 0 0 0 0 0 0 0 0 6 16 16 13 16 16 10 10 6 3 3 3 3 3 6 16 19 16 16 10 6 0 3 3 3 0 0 0 3 0 3 0 0 0 0 3
0 0 0 0 0 0 0 0 0 0 0 0 0 6 13 16 13 16 16 13 10 6 6 6 3 3 3 3 10 10 10 16 10 3 0 0 3 3 3 3 0 6 6 6 3 3 0 3 3
0 0 0 0 0 0 0 0 0 0 0 0 3 6 10 13 13 13 13 13 13 10 10 6 3 3 3 3 10 6 6 6 3 3 0 0 0 0 0 0 10 0 6 3 6 0 3 3 6
0 0 0 0 0 0 0 0 0 0 0 0 0 6 10 13 13 13 16 10 13 10 10 6 6 6 3 3 3 3 3 6 3 3 0 0 0 0 0 0 3 6 3 6 3 0 3 3 3
0 0 0 0 0 0 0 0 0 0 0 0 0 3 10 10 13 13 13 13 16 10 10 6 10 6 3 3 3 3 3 3 3 3 0 0 0 0 0 0 0 3 0 0 0 0 0 0 0
0 0 0 0 0 0 0 0 0 0 0 0 0 3 6 10 13 13 13 13 19 10 10 10 6 6 3 3 3 3 3 3 3 0 0 0 0 0 3 0 0 0 0 0 3 0 6 3 0
0 0 0 0 0 0 0 0 0 0 3 0 0 0 6 6 6 13 13 16 13 16 10 10 6 6 10 3 3 3 3 3 3 0 0 0 0 3 3 3 0 0 0 0 0 0 3 0 0
0 0 0 0 0 0 0 0 0 0 3 3 3 0 0 3 6 6 13 13 19 16 13 10 6 6 6 3 3 3 3 3 3 3 3 0 0 3 3 3 0 0 0 3 3 3 0 0 0
0 0 0 0 0 0 0 0 0 0 0 3 3 3 3 0 3 6 6 16 19 19 16 13 10 6 6 3 3 3 3 3 3 3 0 0 0 0 3 3 3 3 3 0 0 0 0 0 0
0 0 0 0 0 0 0 0 0 0 0 0 0 0 3 0 3 10 10 13 16 19 19 19 19 13 6 3 3 3 3 3 3 3 3 0 3 3 0 6 3 3 6 6 3 0 0 0 0
0 0 0 0 0 0 0 0 0 0 0 0 0 0 0 0 3 3 10 10 19 16 19 19 19 16 6 0 0 0 0 3 0 0 3 0 0 3 3 3 6 6 3 6 0 0 0 0 0
0 0 0 0 0 0 0 0 0 0 0 3 0 0 0 0 3 6 6 13 13 19 19 16 13 13 10 0 0 0 3 0 0 0 0 0 0 3 3 0 3 6 3 3 0 0 0 0 0
0 0 0 0 0 0 0 0 0 0 0 0 3 3 0 3 6 6 6 6 13 13 19 13 13 13 10 6 0 0 0 0 0 0 0 0 0 3 3 0 3 3 0 0 0 0 0 0 0
0 0 0 0 0 0 0 0 0 0 0 0 0 0 0 3 6 6 6 10 13 10 19 19 13 13 6 3 3 0 0 0 0 0 0 0 0 3 3 0 0 0 3 0 0 3 3 0 0
0 0 0 0 0 0 0 0 0 0 0 0 0 0 3 0 6 3 3 6 13 13 19 19 10 6 3 3 3 3 0 0 0 0 0 0 0 0 0 0 0 3 6 6 3 3 3 3 3
0 0 0 0 0 0 0 0 0 0 0 0 0 0 3 0 0 3 3 10 16 6 13 16 10 10 6 3 3 3 3 0 0 0 0 0 0 0 0 3 3 3 3 3 3 3 3 3 3
0 0 0 0 0 0 0 0 0 0 0 0 0 0 3 3 3 6 10 13 10 10 16 10 10 10 6 3 3 3 3 3 0 0 0 3 3 0 0 0 3 3 3 3 3 3 3 3 3
0 0 0 0 0 0 0 0 0 0 0 0 0 0 0 3 3 10 10 10 10 13 13 10 3 3 3 6 6 3 3 3 3 0 0 0 0 0 0 0 3 6 6 10 6 6 6 3 3
0 0 0 0 0 0 0 0 0 0 0 0 0 3 3 3 6 10 10 13 13 16 13 13 6 3 0 3 3 3 3 3 3 3 3 3 0 0 0 0 0 3 6 6 6 6 6 6 3
0 0 0 0 0 0 0 0 0 0 0 0 0 0 3 3 3 10 16 13 13 13 16 13 6 3 6 3 3 3 3 3 3 3 3 3 3 0 0 0 3 3 3 3 3 6 3 3 3

GEFSSGP_con_cape1000_234.txt.gz
Probability
55 52 61 71 77 52 6 0 13 13 3 3 0 3 3 6 13 29 32 16 13 32 29 48 55 52 42 42 35 35 39 39 32 32 35 35 39 42 42 42 39 45 48 45 45 45 42 52 65
48 35 52 61 39 6 3 3 6 0 0 3 0 0 6 10 13 13 19 13 13 19 23 29 52 45 45 42 32 35 39 35 32 32 32 29 32 29 35 32 39 32 39 42 35 42 42 39 39
32 19 55 58 13 3 0 0 3 0 0 3 0 3 10 10 13 13 19 16 6 19 16 32 45 35 45 39 35 32 32 29 32 32 35 32 32 32 29 32 32 35 29 23 29 35 32 23 23
26 48 45 23 6 0 0 0 0 0 0 0 0 6 19 16 13 16 10 10 6 16 16 32 32 32 29 32 32 32 39 32 35 35 35 32 32 29 26 19 23 26 26 26 29 23 19 19 16
26 42 26 6 3 0 0 3 3 3 0 0 0 10 16 16 16 13 13 16 10 13 19 16 26 35 35 29 32 29 29 29 23 23 23 23 19 16 16 16 16 16 26 23 19 23 19 16 13
35 29 6 6 0 0 0 0 0 0 3 0 0 6 16 16 19 16 13 10 10 13 13 16 29 39 26 26 29 19 23 26 13 16 23 23 23 19 13 13 10 13 16 16 19 19 19 16 13
29 23 6 6 6 3 3 3 6 3 0 0 0 3 16 19 23 23 13 16 10 13 13 16 16 19 23 26 23 16 23 19 13 16 13 16 16 13 13 13 10 16 16 16 16 19 13 13 13
23 13 6 0 6 0 6 3 0 0 0 3 0 3 10 26 23 23 16 10 10 6 13 16 10 13 13 13 23 19 19 19 16 13 13 19 13 16 13 13 13 13 10 10 10 13 10 6 10
10 3 3 3 3 0 3 0 0 0 0 0 0 6 16 16 16 16 13 16 13 10 10 13 6 6 10 10 10 19 19 19 13 6 10 13 6 0 6 10 6 6 6 6 6 6 10 6 10
6 3 0 0 0 3 3 0 0 0 0 0 3 10 13 16 16 16 16 13 10 10 6 3 6 3 3 3 10 10 10 6 6 6 3 3 3 0 0 3 6 6 3 3 10 10 3 3 0
0 3 0 0 0 0 0 0 0 0 0 0 3 10 13 6 10 10 10 10 6 3 6 10 3 3 0 3 10 13 13 6 6 6 3 0 0 0 0 0 0 0 0 0 0 0 0 0 0
0 0 0 0 0 0 0 0 0 0 0 0 3 10 10 10 6 10 6 13 6 3 3 0 3 0 0 3 3 6 10 10 0 3 0 0 0 3 0 3 3 3 0 3 3 0 0 0 0
0 0 0 0 0 0 0 0 0 0 0 0 0 10 10 10 3 6 6 6 6 6 3 0 0 0 3 0 3 3 3 3 3 6 0 0 0 0 0 0 3 3 3 3 0 0 0 0 0
0 0 0 0 0 0 0 0 0 0 0 0 0 10 10 6 10 6 10 3 6 6 6 0 0 0 0 3 3 3 3 6 3 3 0 0 3 0 3 3 6 3 3 3 0 3 3 3 3
0 0 0 0 0 0 0 0 0 0 0 0 0 3 3 3 3 3 3 10 3 6 6 6 3 0 0 3 3 3 6 3 3 3 0 0 0 0 0 3 0 0 0 0 3 0 3 0 0
0 0 0 0 0 0 0 0 0 0 0 0 0 0 3 3 3 3 3 6 6 6 6 6 6 0 0 3 6 3 3 3 3 3 0 0 3 3 3 3 0 0 3 0 3 0 0 0 0
0 0 0 0 0 0 0 0 0 0 0 0 0 3 3 3 3 6 6 6 3 6 10 10 10 3 3 3 6 6 6 3 3 3 0 3 3 3 3 6 3 3 3 0 3 3 0 0 0
0 0 0 0 0 0 0 0 3 0 0 0 0 3 0 3 10 6 6 6 3 3 10 10 10 6 3 6 3 6 0 3 3 3 0 3 3 3 3 3 3 3 6 3 0 0 0 0 0
0 0 0 0 0 0 0 0 3 0 0 0 0 0 0 0 10 6 6 6 3 3 6 13 10 10 3 3 3 0 0 0 0 0 0 0 3 6 6 6 6 6 3 0 0 0 0 0 0
0 0 0 0 0 0 0 0 3 3 0 0 0 0 0 0 6 6 6 3 3 3 0 6 10 10 3 6 3 0 0 0 0 0 0 0 0 0 3 3 6 6 3 0 0 0 0 0 0
0 0 0 0 0 0 0 0 3 3 0 0 0 0 0 0 3 6 6 3 3 3 3 3 6 6 10 3 0 0 0 0 0 0 0 0 0 0 6 6 6 6 3 3 0 0 0 0 0
0 0 0 0 0 0 0 0 0 3 0 0 0 0 0 0 3 3 3 3 6 6 6 6 6 6 6 3 0 0 0 0 0 3 3 0 0 0 3 6 6 6 0 0 0 0 0 0 0
0 0 0 0 0 0 0 0 0 0 0 3 0 0 0 3 3 3 3 6 3 6 6 6 6 6 3 3 3 0 0 0 0 3 0 0 3 0 0 0 3 3 0 0 0 0 0 0 0
0 0 0 0 0 0 0 0 0 0 0 0 3 0 3 3 6 6 3 3 6 6 16 19 10 6 6 0 6 3 0 0 0 3 0 0 3 0 0 0 0 3 3 0 0 0 0 0 0
0 0 0 0 0 0 0 0 0 0 0 0 0 0 0 0 6 6 3 3 10 10 23 23 13 13 6 3 6 6 6 0 0 0 0 0 0 0 0 0 0 3 3 3 0 0 0 0 0
0 0 0 0 0 0 0 0 0 0 0 0 0 0 3 3 3 3 6 10 10 13 19 16 16 19 10 6 6 6 6 0 0 0 0 0 0 0 0 3 3 3 0 0 0 0 0 0 0
0 0 0 0 0 0 0 0 0 0 0 0 0 0 3 3 3 6 6 6 10 10 19 16 16 16 13 13 6 6 6 3 0 0 0 0 0 0 0 0 0 0 0 0 3 3 0 0 3
0 0 0 0 0 0 0 0 0 0 0 0 0 0 3 3 3 3 6 10 13 6 19 23 13 13 13 3 0 3 3 3 3 0 0 0 0 0 0 0 0 0 3 3 3 3 6 0 3
0 0 0 0 0 0 0 0 0 0 0 0 0 0 3 3 6 0 6 6 13 13 10 16 16 16 13 3 0 0 3 3 3 3 0 0 0 0 0 0 0 3 3 6 6 3 3 3 3
0 0 0 0 0 0 0 0 0 0 0 0 0 0 3 3 6 6 6 10 10 13 13 13 6 13 10 6 6 6 6 3 3 3 6 0 0 0 0 0 0 0 0 3 6 3 3 3 0

GEFSSGP_con_cape1000_240.txt.gz
Probability
35 26 23 3 3 0 0 0 0 0 0 0 0 3 3 3 0 0 3 6 3 23 42 58 65 48 39 42 48 55 55 55 55 52 58 52 55 48 52 48 45 35 32 42 45 45 42 45 45
26 23 16 3 0 0 0 0 0 0 0 0 3 6 10 6 6 6 3 3 10 23 32 42 52 45 45 39 45 45 52 45 48 45 52 48 52 48 52 45 35 35 35 32 35 26 29 35 32
26 19 3 3 0 0 0 0 0 0 0 6 10 10 6 6 13 3 3 6 16 19 29 48 52 52 42 39 42 42 39 42 42 45 39 35 39 45 45 39 39 35 26 29 29 19 23 23 23
3 0 0 0 0 0 0 0 0 0 3 6 3 10 6 6 10 3 3 13 10 13 19 42 52 45 42 39 42 42 39 42 42 39 32 32 26 35 32 32 26 23 16 23 26 19 16 16 19
3 0 0 0 0 0 0 0 0 0 0 3 3 0 10 16 10 3 6 6 13 13 19 23 45 48 42 42 42 45 45 32 39 32 32 26 26 23 26 23 26 19 19 19 23 19 19 19 23
0 0 0 0 0 0 0 0 0 0 3 3 6 3 6 10 13 10 6 13 10 10 16 19 48 45 39 39 39 42 42 32 29 35 29 23 23 23 23 23 13 19 16 19 19 19 16 16 16
0 0 0 0 0 0 0 0 0 0 0 3 6 0 6 6 6 6 10 6 3 10 13 16 16 23 29 35 32 35 32 32 32 26 19 19 23 16 23 19 16 16 16 13 10 16 19 19 16
0 0 0 0 0 0 0 0 0 0 0 3 0 0 0 6 6 3 6 3 3 10 13 13 13 10 13 16 29 32 32 16 19 19 16 23 23 19 16 13 10 13 3 6 10 13 13 16 16
0 0 0 0 0 0 0 0 0 0 0 10 10 0 3 6 6 6 3 0 0 3 3 10 6 10 10 10 16 16 23 16 16 16 16 10 3 3 6 6 16 10 3 3 6 10 13 13 10
0 0 0 0 0 0 0 0 0 0 3 10 6 10 16 6 6 0 0 0 0 3 0 3 6 6 6 10 13 6 10 6 3 3 6 0 0 0 0 0 16 13 10 6 6 6 3 0 0
0 0 0 0 0 0 0 0 0 0 0 3 6 3 3 3 0 0 0 0 0 0 3 0 0 0 3 0 3 3 0 0 0 0 0 0 0 0 0 0 0 0 3 0 0 0 0 0 0
0 0 0 0 0 0 0 0 0 0 0 6 6 6 0 0 0 0 0 0 0 0 0 0 0 0 0 0 0 0 0 0 0 0 0 0 0 0 0 0 0 0 0 0 0 0 0 0 0
0 0 0 0 0 0 0 0 0 0 3 6 3 3 0 0 0 0 0 0 0 3 0 0 0 0 0 0 0 3 0 0 0 0 0 0 0 0 0 0 0 0 0 0 0 0 0 0 0
0 0 0 0 0 0 0 0 0 0 0 3 3 0 0 0 0 0 0 0 0 0 0 0 0 0 0 0 0 3 0 0 0 0 0 0 0 0 0 0 0 0 0 0 0 0 0 0 0
0 0 0 0 0 0 0 0 0 0 0 0 0 0 0 0 0 0 0 0 0 0 0 0 0 0 0 0 0 0 0 0 0 0 0 0 0 0 0 0 0 0 0 0 0 0 0 0 0
0 0 0 0 0 0 0 0 0 0 0 0 0 0 0 0 0 0 0 0 0 0 0 0 0 0 0 0 0 0 0 0 0 0 0 0 0 0 0 0 0 0 0 0 0 0 0 0 0
0 0 0 0 0 0 0 0 0 0 0 0 0 0 0 0 0 0 0 0 0 0 0 0 0 0 0 0 0 0 0 0 0 0 0 0 0 0 0 0 0 0 0 0 0 0 0 0 0
0 0 0 0 0 0 0 0 0 0 0 0 0 0 0 0 0 0 0 0 0 0 0 0 0 0 0 0 0 0 0 0 0 0 0 0 0 0 0 0 0 0 0 0 0 0 0 0 0
0 0 0 0 0 0 0 0 0 0 0 0 0 0 3 3 0 0 0 0 0 0 0 0 0 0 0 0 0 0 0 0 0 0 0 0 0 0 0 0 0 0 0 0 0 0 0 0 0
0 0 0 0 0 0 0 0 0 0 0 0 0 0 0 3 3 0 0 0 0 0 0 0 0 0 0 0 0 0 0 0 0 0 0 0 0 0 0 0 0 0 0 0 0 0 0 0 0
0 0 0 0 0 0 0 0 0 0 0 0 0 0 0 0 6 6 0 0 0 0 0 0 0 0 0 0 0 0 0 0 0 0 0 0 0 0 0 0 0 0 0 0 0 0 0 0 0
0 0 0 0 0 0 0 0 0 0 0 0 0 0 0 3 3 6 3 0 0 0 0 0 0 0 0 0 0 0 0 0 0 0 0 0 0 0 0 0 0 0 0 0 0 0 0 0 0
0 0 0 0 0 0 0 0 0 0 0 0 0 0 0 3 3 6 3 3 0 0 0 0 0 0 0 0 0 0 0 0 0 0 0 0 0 0 0 0 0 0 0 0 0 0 0 0 0
0 0 0 0 0 0 0 0 0 0 0 0 3 0 3 3 3 3 3 3 3 0 0 0 0 0 0 0 0 0 0 0 0 0 0 0 0 0 0 0 0 0 0 0 0 0 0 0 0
0 0 0 0 0 0 0 0 0 0 0 0 3 0 0 3 3 3 0 3 3 3 0 0 0 3 0 0 0 0 0 0 0 0 0 0 0 0 0 0 0 0 0 0 0 0 0 0 0
0 0 0 0 0 0 0 0 0 0 0 0 0 0 0 3 3 3 0 0 3 3 6 3 3 3 3 3 0 0 0 0 0 0 0 0 0 0 0 0 0 0 0 0 0 0 0 0 0
0 0 0 0 0 0 0 0 0 0 0 0 0 0 0 3 3 3 0 0 0 0 3 3 3 3 3 3 3 0 0 0 0 0 0 0 0 0 0 0 0 0 0 0 0 0 0 0 0
0 0 0 0 0 0 0 0 0 0 0 0 0 0 0 0 0 3 0 0 0 0 3 3 3 3 3 3 3 0 0 0 0 0 0 0 0 0 0 0 0 0 0 0 0 0 0 0 0
0 0 0 0 0 0 0 0 0 0 0 0 0 0 0 0 0 0 0 0 0 0 0 0 0 0 0 3 3 0 0 0 0 0 0 0 0 0 0 0 0 0 0 0 0 0 0 0 0
0 0 0 0 0 0 0 0 0 0 0 0 0 0 0 0 0 0 0 0 0 0 0 0 0 0 0 0 0 0 0 0 0 0 0 0 0 0 0 0 0 0 0 0 0 0 0 0 0